Atmospheric History
02/08/2018 19:51  to  2/9/2018 19:51
Change End Date:
To complete the export process:
1) Select all of the data below
2) Copy the data to the clipboard
3) Open a word processor such as Notepad
4) Paste the data into the word processor
5) Save the file

Date/Time (MST), AirTemp, RH, Dewpoint ,AvgWindSpeed, GustWindSpeed, WindDirection, PrecipType, PrecipIntensity, PrecipAccumulation, PrecipRate
02/09/2018 19:48, -11, 81, -16 ,13, 17, S, None, None, ,  
02/09/2018 19:47, -11, 81, -16 ,12, 17, S, None, None, ,  
02/09/2018 19:37, -11, 81, -15 ,14, 20, S, None, None, ,  
02/09/2018 19:32, -11, 81, -15 ,15, 20, S, None, None, ,  
02/09/2018 19:26, -11, 81, -15 ,14, 19, S, None, None, ,  
02/09/2018 19:17, -10, 81, -15 ,16, 21, S, None, None, ,  
02/09/2018 19:16, -10, 81, -15 ,15, 21, S, None, None, ,  
02/09/2018 19:06, -10, 82, -14 ,17, 21, S, None, None, ,  
02/09/2018 19:02, -10, 82, -15 ,14, 20, S, None, None, ,  
02/09/2018 18:56, -10, 82, -14 ,14, 19, S, None, None, ,  
02/09/2018 18:47, -10, 82, -14 ,16, 19, S, None, None, ,  
02/09/2018 18:46, -10, 82, -14 ,15, 18, S, None, None, ,  
02/09/2018 18:36, -10, 81, -14 ,14, 17, S, None, None, ,  
02/09/2018 18:32, -10, 81, -14 ,13, 17, S, None, None, ,  
02/09/2018 18:26, -10, 81, -14 ,15, 17, S, None, None, ,  
02/09/2018 18:18, -10, 80, -14 ,14, 17, S, None, None, ,  
02/09/2018 18:16, -9, 80, -14 ,13, 17, S, None, None, ,  
02/09/2018 18:06, -9, 79, -14 ,14, 17, S, None, None, ,  
02/09/2018 18:02, -9, 79, -14 ,15, 17, S, None, None, ,  
02/09/2018 17:56, -9, 79, -14 ,14, 17, S, None, None, ,  
02/09/2018 17:47, -9, 78, -14 ,14, 19, S, None, None, ,  
02/09/2018 17:46, -9, 78, -14 ,14, 20, S, None, None, ,  
02/09/2018 17:36, -8, 78, -13 ,17, 20, S, None, None, ,  
02/09/2018 17:32, -8, 78, -13 ,17, 20, S, None, None, ,  
02/09/2018 17:26, -8, 77, -13 ,17, 20, S, None, None, ,  
02/09/2018 17:17, -8, 77, -13 ,16, 19, S, None, None, ,  
02/09/2018 17:16, -8, 77, -13 ,15, 17, S, None, None, ,  
02/09/2018 17:06, -7, 76, -13 ,11, 14, S, None, None, ,  
02/09/2018 17:02, -7, 76, -12 ,12, 14, S, None, None, ,  
02/09/2018 16:56, -7, 76, -13 ,12, 14, S, None, None, ,  
02/09/2018 16:47, -7, 76, -12 ,12, 14, S, None, None, ,  
02/09/2018 16:46, -7, 76, -12 ,12, 14, S, None, None, ,  
02/09/2018 16:36, -6, 75, -12 ,12, 15, S, None, None, ,  
02/09/2018 16:32, -6, 75, -12 ,12, 16, S, None, None, ,  
02/09/2018 16:26, -6, 74, -12 ,12, 16, S, None, None, ,  
02/09/2018 16:17, -6, 74, -12 ,14, 19, S, None, None, ,  
02/09/2018 16:16, -5, 74, -12 ,14, 19, S, None, None, ,  
02/09/2018 16:06, -5, 74, -11 ,16, 19, S, None, None, ,  
02/09/2018 16:02, -5, 74, -11 ,16, 19, S, None, None, ,  
02/09/2018 15:56, -5, 75, -11 ,15, 17, S, None, None, ,  
02/09/2018 15:47, -5, 76, -11 ,14, 17, S, None, None, ,  
02/09/2018 15:45, -5, 76, -10 ,14, 17, S, None, None, ,  
02/09/2018 15:35, -5, 77, -10 ,16, 21, S, None, None, ,  
02/09/2018 15:32, -5, 77, -10 ,16, 21, S, None, None, ,  
02/09/2018 15:25, -5, 78, -10 ,17, 20, S, None, None, ,  
02/09/2018 15:17, -6, 79, -10 ,16, 19, S, None, None, ,  
02/09/2018 15:15, -6, 79, -10 ,16, 18, S, None, None, ,  
02/09/2018 15:05, -6, 79, -10 ,15, 19, S, None, None, ,  
02/09/2018 15:02, -6, 79, -10 ,15, 21, S, None, None, ,  
02/09/2018 14:55, -6, 79, -10 ,18, 21, S, None, None, ,  
02/09/2018 14:47, -6, 80, -10 ,17, 21, S, None, None, ,  
02/09/2018 14:45, -6, 80, -10 ,18, 21, S, None, None, ,  
02/09/2018 14:35, -6, 80, -10 ,18, 21, S, None, None, ,  
02/09/2018 14:32, -5, 80, -10 ,17, 21, S, None, None, ,  
02/09/2018 14:25, -6, 80, -10 ,17, 21, S, None, None, ,  
02/09/2018 14:17, -6, 80, -10 ,16, 21, S, None, None, ,  
02/09/2018 14:15, -6, 80, -10 ,17, 21, S, None, None, ,  
02/09/2018 14:05, -6, 80, -11 ,17, 21, S, None, None, ,  
02/09/2018 14:02, -6, 80, -10 ,17, 21, S, None, None, ,  
02/09/2018 13:55, -6, 80, -11 ,16, 20, S, None, None, ,  
02/09/2018 13:47, -7, 80, -11 ,15, 20, S, None, None, ,  
02/09/2018 13:45, -7, 80, -11 ,17, 20, S, None, None, ,  
02/09/2018 13:35, -7, 80, -11 ,16, 19, S, None, None, ,  
02/09/2018 13:32, -6, 80, -11 ,16, 19, S, None, None, ,  
02/09/2018 13:25, -6, 79, -11 ,17, 19, S, None, None, ,  
02/09/2018 13:17, -6, 80, -11 ,13, 18, S, None, None, ,  
02/09/2018 13:15, -6, 79, -11 ,15, 18, S, None, None, ,  
02/09/2018 13:05, -7, 79, -11 ,13, 18, S, None, None, ,  
02/09/2018 13:02, -7, 79, -12 ,16, 18, S, None, None, ,  
02/09/2018 12:55, -7, 79, -12 ,14, 16, S, None, None, ,  
02/09/2018 12:47, -7, 79, -12 ,14, 17, S, None, None, ,  
02/09/2018 12:45, -7, 79, -12 ,14, 17, S, None, None, ,  
02/09/2018 12:34, -7, 79, -12 ,14, 17, S, None, None, ,  
02/09/2018 12:32, -8, 79, -12 ,13, 17, S, None, None, ,  
02/09/2018 12:24, -8, 79, -13 ,14, 17, S, None, None, ,  
02/09/2018 12:17, -8, 79, -13 ,14, 17, S, None, None, ,  
02/09/2018 12:14, -8, 79, -13 ,14, 17, S, None, None, ,  
02/09/2018 12:04, -8, 79, -13 ,4, 16, SE, None, None, ,  
02/09/2018 12:02, -8, 80, -13 ,0, 0, NE, None, None, ,  
02/09/2018 11:54, -9, 79, -13 ,0, 0, NE, None, None, ,  
02/09/2018 11:47, -9, 79, -14 ,0, 0, NE, None, None, ,  
02/09/2018 11:44, -9, 79, -14 ,0, 0, NE, None, None, ,  
02/09/2018 11:34, -10, 79, -14 ,0, 0, NE, None, None, ,  
02/09/2018 11:32, -10, 79, -15 ,0, 0, NE, None, None, ,  
02/09/2018 11:24, -10, 79, -14 ,0, 0, NE, None, None, ,  
02/09/2018 11:17, -10, 79, -15 ,0, 0, NE, None, None, ,  
02/09/2018 11:14, -11, 79, -16 ,0, 0, NE, None, None, ,  
02/09/2018 11:04, -11, 79, -16 ,0, 0, NE, None, None, ,  
02/09/2018 11:02, -11, 79, -16 ,0, 0, NE, None, None, ,  
02/09/2018 10:54, -11, 78, -16 ,0, 0, NE, None, None, ,  
02/09/2018 10:47, -12, 78, -17 ,0, 0, NE, None, None, ,  
02/09/2018 10:44, -12, 78, -17 ,0, 0, NE, None, None, ,  
02/09/2018 10:34, -12, 78, -17 ,0, 0, NE, None, None, ,  
02/09/2018 10:32, -12, 78, -17 ,0, 0, NE, None, None, ,  
02/09/2018 10:24, -13, 78, -18 ,0, 0, NE, None, None, ,  
02/09/2018 10:17, -14, 78, -18 ,0, 0, NE, None, None, ,  
02/09/2018 10:14, -14, 78, -18 ,0, 0, NE, None, None, ,  
02/09/2018 10:04, -14, 77, -19 ,0, 0, NE, None, None, ,  
02/09/2018 10:02, -14, 77, -19 ,0, 0, NE, None, None, ,  
02/09/2018 09:54, -13, 77, -18 ,0, 0, NE, None, None, ,  
02/09/2018 09:47, -13, 78, -18 ,0, 0, N, None, None, ,  
02/09/2018 09:44, -14, 78, -19 ,0, 0, NE, None, None, ,  
02/09/2018 09:34, -13, 78, -18 ,0, 0, NE, None, None, ,  
02/09/2018 09:32, -13, 78, -18 ,0, 0, N, None, None, ,  
02/09/2018 09:24, -14, 78, -19 ,0, 0, NE, None, None, ,  
02/09/2018 09:17, -14, 78, -19 ,0, 0, NE, None, None, ,  
02/09/2018 09:13, -15, 78, -20 ,0, 0, NE, None, None, ,  
02/09/2018 09:03, -15, 78, -19 ,0, 0, NE, None, None, ,  
02/09/2018 09:02, -15, 78, -19 ,0, 0, NE, None, None, ,  
02/09/2018 08:53, -15, 78, -20 ,0, 0, NE, None, None, ,  
02/09/2018 08:47, -16, 78, -21 ,0, 0, NE, None, None, ,  
02/09/2018 08:43, -16, 78, -21 ,0, 0, NE, None, None, ,  
02/09/2018 08:33, -16, 78, -21 ,0, 0, NE, None, None, ,  
02/09/2018 08:32, -16, 78, -21 ,0, 0, NE, None, None, ,  
02/09/2018 08:23, -15, 77, -20 ,0, 0, NE, None, None, ,  
02/09/2018 08:17, -14, 78, -19 ,0, 0, NE, None, None, ,  
02/09/2018 08:13, -13, 80, -17 ,0, 0, NE, None, None, ,  
02/09/2018 08:03, -15, 78, -20 ,0, 0, NE, None, None, ,  
02/09/2018 08:02, -15, 79, -20 ,0, 0, NE, None, None, ,  
02/09/2018 07:53, -14, 79, -19 ,0, 0, NE, None, None, ,  
02/09/2018 07:47, -14, 80, -19 ,0, 0, NE, None, None, ,  
02/09/2018 07:43, -15, 79, -19 ,0, 0, NE, None, None, ,  
02/09/2018 07:33, -15, 80, -19 ,0, 0, E, None, None, ,  
02/09/2018 07:32, -15, 80, -19 ,0, 0, E, None, None, ,  
02/09/2018 07:23, -15, 80, -20 ,0, 0, E, None, None, ,  
02/09/2018 07:17, -16, 80, -20 ,0, 0, E, None, None, ,  
02/09/2018 07:13, -16, 80, -20 ,0, 0, E, None, None, ,  
02/09/2018 07:03, -16, 80, -20 ,0, 0, NE, None, None, ,  
02/09/2018 07:02, -16, 80, -20 ,0, 0, NE, None, None, ,  
02/09/2018 06:53, -16, 80, -20 ,0, 0, NE, None, None, ,  
02/09/2018 06:47, -15, 80, -20 ,0, 0, NE, None, None, ,  
02/09/2018 06:43, -15, 80, -20 ,0, 0, NE, None, None, ,  
02/09/2018 06:33, -15, 80, -19 ,0, 0, NE, None, None, ,  
02/09/2018 06:32, -15, 80, -19 ,0, 0, NE, None, None, ,  
02/09/2018 06:23, -14, 81, -18 ,0, 0, NE, None, None, ,  
02/09/2018 06:17, -14, 81, -18 ,0, 0, NE, None, None, ,  
02/09/2018 06:13, -15, 80, -19 ,0, 0, NE, None, None, ,  
02/09/2018 06:03, -15, 81, -19 ,0, 0, NE, None, None, ,  
02/09/2018 06:03, -15, 81, -19 ,0, 0, NE, None, None, ,  
02/09/2018 05:52, -15, 80, -20 ,0, 0, NE, None, None, ,  
02/09/2018 05:47, -16, 80, -20 ,0, 0, NE, None, None, ,  
02/09/2018 05:42, -15, 80, -19 ,0, 0, NE, None, None, ,  
02/09/2018 05:33, -14, 81, -18 ,0, 0, NE, None, None, ,  
02/09/2018 05:32, -14, 81, -18 ,0, 0, NE, None, None, ,  
02/09/2018 05:22, -15, 80, -19 ,0, 0, NE, None, None, ,  
02/09/2018 05:17, -14, 81, -18 ,0, 0, E, None, None, ,  
02/09/2018 05:12, -14, 81, -18 ,0, 0, NE, None, None, ,  
02/09/2018 05:02, -14, 81, -18 ,0, 0, NE, None, None, ,  
02/09/2018 05:02, -14, 81, -18 ,0, 0, NE, None, None, ,  
02/09/2018 04:52, -14, 82, -18 ,0, 0, E, None, None, ,  
02/09/2018 04:48, -14, 81, -18 ,0, 0, NE, None, None, ,  
02/09/2018 04:42, -14, 81, -18 ,0, 0, NE, None, None, ,  
02/09/2018 04:32, -14, 81, -18 ,0, 0, NE, None, None, ,  
02/09/2018 04:32, -14, 81, -18 ,0, 0, NE, None, None, ,  
02/09/2018 04:22, -14, 81, -18 ,0, 0, N, None, None, ,  
02/09/2018 04:17, -14, 81, -18 ,0, 0, N, None, None, ,  
02/09/2018 04:12, -14, 81, -18 ,0, 0, N, None, None, ,  
02/09/2018 04:02, -14, 81, -18 ,0, 0, N, None, None, ,  
02/09/2018 04:02, -14, 81, -18 ,0, 0, N, None, None, ,  
02/09/2018 03:52, -13, 80, -18 ,0, 0, N, None, None, ,  
02/09/2018 03:50, -12, 81, -16 ,0, 0, N, None, None, ,  
02/09/2018 03:42, -12, 82, -16 ,0, 0, N, None, None, ,  
02/09/2018 03:32, -12, 82, -16 ,0, 0, N, None, None, ,  
02/09/2018 03:32, -12, 82, -16 ,0, 0, N, None, None, ,  
02/09/2018 03:22, -12, 81, -16 ,0, 0, NE, None, None, ,  
02/09/2018 03:17, -12, 82, -16 ,0, 0, SE, None, None, ,  
02/09/2018 03:12, -12, 81, -16 ,0, 0, SE, None, None, ,  
02/09/2018 03:02, -12, 82, -16 ,0, 0, SE, None, None, ,  
02/09/2018 03:02, -12, 81, -16 ,0, 0, SE, None, None, ,  
02/09/2018 02:52, -12, 81, -16 ,0, 0, E, None, None, ,  
02/09/2018 02:47, -12, 82, -16 ,0, 0, E, None, None, ,  
02/09/2018 02:42, -12, 82, -16 ,0, 0, NE, None, None, ,  
02/09/2018 02:32, -12, 81, -17 ,0, 0, NE, None, None, ,  
02/09/2018 02:32, -12, 81, -16 ,0, 0, NE, None, None, ,  
02/09/2018 02:21, -12, 81, -16 ,0, 0, NE, None, None, ,  
02/09/2018 02:17, -11, 82, -15 ,0, 0, NE, None, None, ,  
02/09/2018 02:11, -11, 82, -15 ,0, 0, E, None, None, ,  
02/09/2018 02:02, -11, 82, -15 ,0, 0, E, None, None, ,  
02/09/2018 02:01, -11, 82, -15 ,0, 0, NE, None, None, ,  
02/09/2018 01:51, -11, 82, -15 ,0, 0, E, None, None, ,  
02/09/2018 01:47, -11, 82, -15 ,0, 0, NE, None, None, ,  
02/09/2018 01:41, -11, 81, -15 ,0, 0, E, None, None, ,  
02/09/2018 01:32, -11, 81, -15 ,0, 0, E, None, None, ,  
02/09/2018 01:31, -11, 81, -15 ,0, 0, E, None, None, ,  
02/09/2018 01:21, -10, 83, -14 ,0, 0, E, None, None, ,  
02/09/2018 01:17, -11, 83, -14 ,0, 0, E, None, None, ,  
02/09/2018 01:11, -11, 82, -15 ,0, 0, E, None, None, ,  
02/09/2018 01:02, -11, 83, -14 ,0, 0, E, None, None, ,  
02/09/2018 01:01, -11, 83, -14 ,0, 0, E, None, None, ,  
02/09/2018 00:51, -10, 83, -14 ,0, 0, E, None, None, ,  
02/09/2018 00:47, -11, 83, -14 ,0, 0, E, None, None, ,  
02/09/2018 00:41, -10, 82, -14 ,0, 0, E, None, None, ,  
02/09/2018 00:33, -10, 81, -14 ,0, 0, E, None, None, ,  
02/09/2018 00:31, -9, 82, -14 ,0, 0, E, None, None, ,  
02/09/2018 00:21, -10, 82, -14 ,0, 0, NE, None, None, ,  
02/09/2018 00:18, -10, 82, -14 ,0, 0, NE, None, None, ,  
02/09/2018 00:11, -9, 82, -13 ,0, 0, NE, None, None, ,  
02/09/2018 00:02, -9, 81, -13 ,0, 0, NE, None, None, ,  
02/09/2018 00:01, -9, 82, -13 ,0, 0, NE, None, None, ,  
02/08/2018 23:51, -9, 81, -14 ,0, 0, NE, None, None, ,  
02/08/2018 23:47, -9, 81, -14 ,0, 0, E, None, None, ,  
02/08/2018 23:41, -9, 80, -13 ,0, 0, E, None, None, ,  
02/08/2018 23:32, -8, 79, -13 ,0, 0, E, None, None, ,  
02/08/2018 23:31, -8, 79, -13 ,0, 0, E, None, None, ,  
02/08/2018 23:21, -8, 80, -12 ,0, 0, NE, None, None, ,  
02/08/2018 23:17, -7, 82, -11 ,0, 0, NE, None, None, ,  
02/08/2018 23:11, -9, 83, -13 ,0, 0, NE, None, None, ,  
02/08/2018 23:02, -9, 80, -14 ,0, 4, E, None, None, ,  
02/08/2018 23:00, -9, 79, -14 ,0, 4, N, None, None, ,  
02/08/2018 22:50, -8, 81, -12 ,6, 7, N, None, None, ,  
02/08/2018 22:47, -9, 80, -13 ,6, 6, N, None, None, ,  
02/08/2018 22:40, -9, 81, -13 ,4, 6, N, None, None, ,  
02/08/2018 22:32, -8, 80, -13 ,3, 4, N, None, None, ,  
02/08/2018 22:30, -8, 80, -13 ,2, 3, N, None, None, ,  
02/08/2018 22:20, -8, 81, -12 ,0, 2, N, None, None, ,  
02/08/2018 22:17, -8, 81, -12 ,1, 3, N, None, None, ,  
02/08/2018 22:10, -8, 80, -13 ,2, 4, N, None, None, ,  
02/08/2018 22:02, -8, 81, -12 ,3, 6, N, None, None, ,  
02/08/2018 22:00, -8, 81, -12 ,2, 6, N, None, None, ,  
02/08/2018 21:50, -8, 81, -13 ,5, 8, N, None, None, ,  
02/08/2018 21:47, -8, 81, -12 ,6, 8, N, None, None, ,  
02/08/2018 21:40, -8, 81, -12 ,6, 7, N, None, None, ,  
02/08/2018 21:33, -9, 81, -13 ,4, 7, N, None, None, ,  
02/08/2018 21:30, -9, 82, -13 ,4, 8, N, None, None, ,  
02/08/2018 21:20, -8, 81, -12 ,7, 8, N, None, None, ,  
02/08/2018 21:17, -8, 81, -12 ,6, 9, N, None, None, ,  
02/08/2018 21:10, -9, 82, -13 ,6, 9, N, None, None, ,  
02/08/2018 21:03, -8, 81, -13 ,6, 6, N, None, None, ,  
02/08/2018 21:00, -8, 80, -12 ,6, 8, N, None, None, ,  
02/08/2018 20:50, -7, 80, -12 ,7, 9, N, None, None, ,  
02/08/2018 20:47, -7, 79, -12 ,7, 9, N, None, None, ,  
02/08/2018 20:40, -7, 80, -11 ,9, 9, N, None, None, ,  
02/08/2018 20:32, -7, 79, -11 ,7, 11, N, None, None, ,  
02/08/2018 20:30, -6, 79, -11 ,8, 11, N, None, None, ,  
02/08/2018 20:20, -6, 79, -11 ,8, 9, N, None, None, ,  
02/08/2018 20:17, -6, 78, -11 ,7, 10, N, None, None, ,  
02/08/2018 20:10, -5, 79, -10 ,8, 10, N, None, None, ,  
02/08/2018 20:02, -5, 78, -10 ,9, 11, N, None, None, ,  
02/08/2018 20:00, -5, 78, -10 ,9, 11, N, None, None, ,  
Change End Date:

Copyright © 1998-2015 Vaisala, Inc.
All Rights Reserved
Send comments about the data to:
SCAN Web ® is a registered trademark of Vaisala, Inc.
SCAN Web Version 6.0